Overview Statistics Trail Chart Weather Telemetry Raw packets
 

This is the latest recevied weather packets stored in our database for station/object ED3YAB-7. If no packets are shown the sender has not sent any weather packets the latest 10 day(s).

<< 19 20 21 22 23 24 25 >>
Time Temp. Humidity Pressure Rain* Wind** Luminosity Snow
1777722505 25° C 32% 1026.8 hPa - - - -
1777722493 25° C 32% 1026.8 hPa - - - -
1777721301 24.44° C 35% 1027 hPa - - - -
1777721293 24.44° C 35% 1027 hPa - - - -
1777720102 22.22° C 38% 1027.3 hPa - - - -
1777720093 22.22° C 38% 1027.3 hPa - - - -
1777718893 21.67° C 39% 1027.3 hPa - - - -
1777717693 21.11° C 40% 1027.5 hPa - - - -
1777716493 21.11° C 41% 1027.9 hPa - - - -
1777715300 21.11° C 40% 1027.9 hPa - - - -
1777715293 21.11° C 40% 1027.9 hPa - - - -
1777714100 22.22° C 41% 1028 hPa - - - -
1777714092 22.22° C 41% 1028 hPa - - - -
1777712900 20° C 46% 1028 hPa - - - -
1777712892 20° C 46% 1028 hPa - - - -
1777711700 18.33° C 50% 1028 hPa - - - -
1777711692 18.33° C 50% 1028 hPa - - - -
1777710499 18.89° C 50% 1028.1 hPa - - - -
1777710492 18.89° C 50% 1028.1 hPa - - - -
1777709292 18.33° C 51% 1028 hPa - - - -
1777708099 17.78° C 51% 1028.1 hPa - - - -
1777708092 17.78° C 51% 1028.1 hPa - - - -
1777706899 17.78° C 53% 1028.1 hPa - - - -
1777706892 17.78° C 53% 1028.1 hPa - - - -
1777705701 16.67° C 55% 1028.2 hPa - - - -

* Rain since midnight (hover to see other rain measurements)
** Current wind speed in m/s (hover to see current wind gust speed)